| time (UTC) | temp F | wind direction | speed MPH | gust MPH | rain 1hr in | rain 24hr in | rain mn in | humidity % | barometer mb |
| 20260905225636 | 77 | 53 | 0.0 | 4.0 | 0.00 | 0.00 | 0.00 | 65 | 1012.3 |
| 20260905225125 | 77 | 28 | 1.0 | 4.0 | 0.00 | 0.00 | 0.00 | 66 | 1012.3 |
| 20260905224614 | 77 | 89 | 0.0 | 0.0 | 0.00 | 0.00 | 0.00 | 68 | 1012.2 |
| 20260905224124 | 77 | 147 | 0.0 | 0.0 | 0.00 | 0.00 | 0.00 | 68 | 1012.3 |
| 20260905223632 | 77 | 80 | 0.0 | 0.0 | 0.00 | 0.00 | 0.00 | 67 | 1012.3 |
| 20260905223123 | 77 | 80 | 0.0 | 0.0 | 0.00 | 0.00 | 0.00 | 68 | 1012.2 |
| 20260905222632 | 77 | 80 | 0.0 | 0.0 | 0.00 | 0.00 | 0.00 | 68 | 1012.2 |
| 20260905222121 | 77 | 80 | 0.0 | 0.0 | 0.00 | 0.00 | 0.00 | 68 | 1012.2 |
| 20260905221630 | 77 | 80 | 0.0 | 0.0 | 0.00 | 0.00 | 0.00 | 67 | 1012.2 |
| 20260905221118 | 78 | 80 | 0.0 | 2.0 | 0.00 | 0.00 | 0.00 | 68 | 1012.1 |
| 20260905220628 | 78 | 80 | 0.0 | 3.0 | 0.00 | 0.00 | 0.00 | 67 | 1012.0 |
| 20260905220116 | 79 | 14 | 0.0 | 3.0 | 0.00 | 0.00 | 0.00 | 64 | 1012.0 |
| 20260905215622 | 79 | 43 | 0.0 | 6.0 | 0.00 | 0.00 | 0.00 | 65 | 1012.0 |
| 20260905215132 | 79 | 21 | 1.0 | 6.0 | 0.00 | 0.00 | 0.00 | 63 | 1011.9 |
| 20260905214621 | 79 | 43 | 0.0 | 2.0 | 0.00 | 0.00 | 0.00 | 63 | 1011.7 |
| 20260905214130 | 80 | 88 | 1.0 | 3.0 | 0.00 | 0.00 | 0.00 | 64 | 1011.6 |
| 20260905213618 | 80 | 18 | 0.0 | 3.0 | 0.00 | 0.00 | 0.00 | 62 | 1011.6 |
| 20260905213148 | 80 | 19 | 0.0 | 2.0 | 0.00 | 0.00 | 0.00 | 62 | 1011.6 |
| 20260905212636 | 80 | 14 | 0.0 | 3.0 | 0.00 | 0.00 | 0.00 | 65 | 1011.4 |
| 20260905212125 | 80 | 5 | 1.0 | 3.0 | 0.00 | 0.00 | 0.00 | 63 | 1011.4 |
| 20260905211614 | 80 | 116 | 0.0 | 3.0 | 0.00 | 0.00 | 0.00 | 64 | 1011.3 |
| 20260905211124 | 80 | 293 | 0.0 | 2.0 | 0.00 | 0.00 | 0.00 | 66 | 1011.3 |
| 20260905210613 | 80 | 8 | 0.0 | 5.0 | 0.00 | 0.00 | 0.00 | 63 | 1011.3 |
| 20260905210122 | 80 | 12 | 0.0 | 4.0 | 0.00 | 0.00 | 0.00 | 63 | 1011.3 |
| 20260905205631 | 81 | 32 | 1.0 | 4.0 | 0.00 | 0.00 | 0.00 | 61 | 1011.3 |
| 20260905205119 | 82 | 305 | 0.0 | 3.0 | 0.00 | 0.00 | 0.00 | 61 | 1011.2 |
| 20260905204627 | 82 | 43 | 0.0 | 3.0 | 0.00 | 0.00 | 0.00 | 62 | 1011.2 |
| 20260905204137 | 82 | 18 | 0.0 | 5.0 | 0.00 | 0.00 | 0.00 | 61 | 1011.3 |
| 20260905203624 | 82 | 303 | 0.0 | 5.0 | 0.00 | 0.00 | 0.00 | 60 | 1011.4 |
| 20260905203128 | 82 | 92 | 0.0 | 1.0 | 0.00 | 0.00 | 0.00 | 63 | 1011.4 |
| 20260905202617 | 82 | 355 | 0.0 | 5.0 | 0.00 | 0.00 | 0.00 | 61 | 1011.5 |
| 20260905202145 | 82 | 347 | 0.0 | 5.0 | 0.00 | 0.00 | 0.00 | 61 | 1011.5 |
| 20260905201613 | 82 | 3 | 0.0 | 4.0 | 0.00 | 0.00 | 0.00 | 60 | 1011.6 |
| 20260905201122 | 82 | 27 | 1.0 | 5.0 | 0.00 | 0.00 | 0.00 | 61 | 1011.6 |
| 20260905200631 | 81 | 104 | 0.0 | 2.0 | 0.00 | 0.00 | 0.00 | 62 | 1011.6 |
| 20260905200121 | 80 | 328 | 0.0 | 2.0 | 0.00 | 0.00 | 0.00 | 64 | 1011.6 |
| 20260905195651 | 80 | 331 | 0.0 | 0.0 | 0.00 | 0.00 | 0.00 | 67 | 1011.7 |
| 20260905195118 | 80 | 2 | 0.0 | 0.0 | 0.00 | 0.00 | 0.00 | 65 | 1011.7 |
| 20260905194628 | 80 | 359 | 0.0 | 0.0 | 0.00 | 0.00 | 0.00 | 65 | 1011.7 |
| 20260905194117 | 80 | 105 | 0.0 | 0.0 | 0.00 | 0.00 | 0.00 | 64 | 1011.7 |
| 20260905193627 | 80 | 3 | 0.0 | 0.0 | 0.00 | 0.00 | 0.00 | 66 | 1011.8 |
| 20260905193114 | 80 | 63 | 0.0 | 0.0 | 0.00 | 0.00 | 0.00 | 65 | 1011.9 |
| 20260905192623 | 81 | 64 | 0.0 | 4.0 | 0.00 | 0.00 | 0.00 | 63 | 1011.9 |
| 20260905192131 | 82 | 355 | 1.0 | 4.0 | 0.00 | 0.00 | 0.00 | 62 | 1012.0 |
| 20260905191620 | 81 | 40 | 0.0 | 2.0 | 0.00 | 0.00 | 0.00 | 62 | 1011.9 |
| 20260905191129 | 81 | 349 | 0.0 | 2.0 | 0.00 | 0.00 | 0.00 | 62 | 1012.0 |
| 20260905190619 | 82 | 51 | 0.0 | 2.0 | 0.00 | 0.00 | 0.00 | 60 | 1012.1 |
| 20260905190129 | 83 | 288 | 0.0 | 5.0 | 0.00 | 0.00 | 0.00 | 62 | 1012.1 |
| 20260905185653 | 83 | 311 | 1.0 | 5.0 | 0.00 | 0.00 | 0.00 | 62 | 1012.1 |
| 20260905185121 | 81 | 343 | 0.0 | 1.0 | 0.00 | 0.00 | 0.00 | 62 | 1012.2 |
| 20260905184651 | 81 | 322 | 0.0 | 7.0 | 0.00 | 0.00 | 0.00 | 61 | 1012.3 |
| 20260905184119 | 82 | 309 | 1.0 | 7.0 | 0.00 | 0.00 | 0.00 | 61 | 1012.4 |
| 20260905183628 | 81 | 291 | 0.0 | 7.0 | 0.00 | 0.00 | 0.00 | 65 | 1012.4 |
| 20260905183118 | 82 | 21 | 1.0 | 7.0 | 0.00 | 0.00 | 0.00 | 62 | 1012.5 |
| 20260905182627 | 80 | 336 | 1.0 | 6.0 | 0.00 | 0.00 | 0.00 | 65 | 1012.5 |
| 20260905182115 | 79 | 3 | 1.0 | 6.0 | 0.00 | 0.00 | 0.00 | 65 | 1012.5 |
| 20260905181625 | 79 | 26 | 0.0 | 3.0 | 0.00 | 0.00 | 0.00 | 67 | 1012.6 |
| 20260905181114 | 80 | 350 | 0.0 | 2.0 | 0.00 | 0.00 | 0.00 | 66 | 1012.8 |
| 20260905180643 | 80 | 311 | 0.0 | 2.0 | 0.00 | 0.00 | 0.00 | 68 | 1012.7 |
| 20260905180132 | 79 | 45 | 0.0 | 0.0 | 0.00 | 0.00 | 0.00 | 71 | 1012.7 |
| 20260905175622 | 79 | 44 | 0.0 | 0.0 | 0.00 | 0.00 | 0.00 | 71 | 1012.7 |
| 20260905175150 | 80 | 47 | 0.0 | 0.0 | 0.00 | 0.00 | 0.00 | 69 | 1012.7 |
| 20260905174618 | 80 | 6 | 0.0 | 2.0 | 0.00 | 0.00 | 0.00 | 67 | 1012.8 |
| 20260905174126 | 81 | 343 | 0.0 | 2.0 | 0.00 | 0.00 | 0.00 | 67 | 1012.8 |
| 20260905173615 | 81 | 353 | 0.0 | 2.0 | 0.00 | 0.00 | 0.00 | 68 | 1012.8 |
| 20260905173120 | 80 | 321 | 0.0 | 1.0 | 0.00 | 0.00 | 0.00 | 69 | 1012.9 |
| 20260905172629 | 81 | 13 | 0.0 | 0.0 | 0.00 | 0.00 | 0.00 | 69 | 1012.9 |
| 20260905172118 | 81 | 3 | 0.0 | 1.0 | 0.00 | 0.00 | 0.00 | 67 | 1012.9 |
| 20260905171628 | 81 | 309 | 0.0 | 3.0 | 0.00 | 0.00 | 0.00 | 68 | 1013.0 |
| 20260905171116 | 80 | 308 | 0.0 | 3.0 | 0.00 | 0.00 | 0.00 | 69 | 1013.1 |
| 20260905170625 | 80 | 297 | 0.0 | 3.0 | 0.00 | 0.00 | 0.00 | 69 | 1013.1 |
| 20260905170115 | 80 | 301 | 0.0 | 2.0 | 0.00 | 0.00 | 0.00 | 68 | 1013.1 |
| 20260905165624 | 80 | 344 | 0.0 | 0.0 | 0.00 | 0.00 | 0.00 | 69 | 1013.0 |
| 20260905165133 | 80 | 330 | 0.0 | 4.0 | 0.00 | 0.00 | 0.00 | 68 | 1013.1 |
| 20260905164641 | 80 | 7 | 0.0 | 4.0 | 0.00 | 0.00 | 0.00 | 68 | 1013.1 |
| 20260905164129 | 80 | 37 | 0.0 | 0.0 | 0.00 | 0.00 | 0.00 | 70 | 1013.2 |
| 20260905163617 | 79 | 77 | 0.0 | 0.0 | 0.00 | 0.00 | 0.00 | 69 | 1013.2 |
| 20260905163146 | 79 | 16 | 0.0 | 1.0 | 0.00 | 0.00 | 0.00 | 71 | 1013.1 |
| 20260905162613 | 79 | 135 | 0.0 | 1.0 | 0.00 | 0.00 | 0.00 | 70 | 1013.2 |
| 20260905162123 | 79 | 81 | 0.0 | 1.0 | 0.00 | 0.00 | 0.00 | 70 | 1013.2 |
| 20260905161633 | 79 | 24 | 0.0 | 0.0 | 0.00 | 0.00 | 0.00 | 73 | 1013.3 |
| 20260905161121 | 79 | 41 | 0.0 | 0.0 | 0.00 | 0.00 | 0.00 | 68 | 1013.3 |
| 20260905160629 | 79 | 323 | 0.0 | 0.0 | 0.00 | 0.00 | 0.00 | 71 | 1013.4 |
| 20260905160119 | 79 | 59 | 0.0 | 1.0 | 0.00 | 0.00 | 0.00 | 68 | 1013.5 |
| 20260905155622 | 79 | 355 | 0.0 | 2.0 | 0.00 | 0.00 | 0.00 | 69 | 1013.5 |
| 20260905155132 | 79 | 10 | 0.0 | 2.0 | 0.00 | 0.00 | 0.00 | 70 | 1013.4 |
| 20260905154620 | 79 | 318 | 0.0 | 1.0 | 0.00 | 0.00 | 0.00 | 72 | 1013.5 |
| 20260905154129 | 78 | 350 | 0.0 | 0.0 | 0.00 | 0.00 | 0.00 | 72 | 1013.6 |
| 20260905153618 | 79 | 69 | 0.0 | 0.0 | 0.00 | 0.00 | 0.00 | 71 | 1013.7 |
| 20260905153126 | 79 | 7 | 0.0 | 1.0 | 0.00 | 0.00 | 0.00 | 72 | 1013.8 |
| 20260905152616 | 79 | 339 | 0.0 | 1.0 | 0.00 | 0.00 | 0.00 | 72 | 1013.9 |
| 20260905152125 | 79 | 351 | 0.0 | 3.0 | 0.00 | 0.00 | 0.00 | 70 | 1013.9 |
| 20260905151614 | 80 | 19 | 0.0 | 3.0 | 0.00 | 0.00 | 0.00 | 69 | 1014.0 |
| 20260905151123 | 80 | 350 | 0.0 | 1.0 | 0.00 | 0.00 | 0.00 | 70 | 1013.8 |
| 20260905150653 | 80 | 52 | 0.0 | 1.0 | 0.00 | 0.00 | 0.00 | 71 | 1013.8 |
| 20260905150121 | 79 | 8 | 0.0 | 1.0 | 0.00 | 0.00 | 0.00 | 72 | 1013.6 |
| 20260905145629 | 78 | 12 | 0.0 | 0.0 | 0.00 | 0.00 | 0.00 | 74 | 1013.5 |
| 20260905145140 | 78 | 30 | 0.0 | 0.0 | 0.00 | 0.00 | 0.00 | 74 | 1013.6 |
| 20260905144627 | 78 | 8 | 0.0 | 3.0 | 0.00 | 0.00 | 0.00 | 72 | 1013.6 |
| 20260905144116 | 78 | 350 | 0.0 | 3.0 | 0.00 | 0.00 | 0.00 | 71 | 1013.6 |
| 20260905143645 | 79 | 11 | 0.0 | 1.0 | 0.00 | 0.00 | 0.00 | 73 | 1013.6 |
| 20260905143129 | 79 | 75 | 0.0 | 1.0 | 0.00 | 0.00 | 0.00 | 74 | 1013.4 |
| 20260905142616 | 78 | 55 | 0.0 | 0.0 | 0.00 | 0.00 | 0.00 | 76 | 1013.3 |
| 20260905142125 | 78 | 35 | 0.0 | 0.0 | 0.00 | 0.00 | 0.00 | 77 | 1013.2 |
| 20260905141614 | 77 | 20 | 0.0 | 0.0 | 0.00 | 0.00 | 0.00 | 76 | 1013.2 |
| 20260905141124 | 78 | 57 | 0.0 | 0.0 | 0.00 | 0.00 | 0.00 | 76 | 1013.1 |
| 20260905140653 | 78 | 299 | 0.0 | 0.0 | 0.00 | 0.00 | 0.00 | 76 | 1013.1 |
| 20260905140121 | 78 | 78 | 0.0 | 1.0 | 0.00 | 0.00 | 0.00 | 76 | 1013.2 |
| 20260905135629 | 78 | 134 | 0.0 | 1.0 | 0.00 | 0.00 | 0.00 | 75 | 1013.0 |
| 20260905135118 | 78 | 33 | 0.0 | 0.0 | 0.00 | 0.00 | 0.00 | 75 | 1013.1 |
| 20260905134627 | 78 | 170 | 0.0 | 0.0 | 0.00 | 0.00 | 0.00 | 77 | 1013.1 |
| 20260905134117 | 78 | 353 | 0.0 | 4.0 | 0.00 | 0.00 | 0.00 | 77 | 1013.1 |
| 20260905133645 | 78 | 4 | 0.0 | 4.0 | 0.00 | 0.00 | 0.00 | 77 | 1013.3 |
| 20260905133114 | 78 | 165 | 0.0 | 1.0 | 0.00 | 0.00 | 0.00 | 79 | 1013.3 |
| 20260905132623 | 77 | 49 | 0.0 | 1.0 | 0.00 | 0.00 | 0.00 | 80 | 1013.3 |
| 20260905132131 | 76 | 345 | 0.0 | 2.0 | 0.00 | 0.00 | 0.00 | 81 | 1013.3 |
| 20260905131620 | 76 | 357 | 0.0 | 2.0 | 0.00 | 0.00 | 0.00 | 81 | 1013.3 |
| 20260905131129 | 76 | 39 | 0.0 | 2.0 | 0.00 | 0.00 | 0.00 | 81 | 1013.1 |
| 20260905130618 | 76 | 76 | 0.0 | 2.0 | 0.00 | 0.00 | 0.00 | 81 | 1013.0 |
| 20260905130127 | 76 | 45 | 0.0 | 1.0 | 0.00 | 0.00 | 0.00 | 80 | 1013.0 |
| 20260905125652 | 76 | 118 | 0.0 | 3.0 | 0.00 | 0.00 | 0.00 | 82 | 1013.0 |
| 20260905125121 | 76 | 165 | 0.0 | 3.0 | 0.00 | 0.00 | 0.00 | 83 | 1013.0 |
| 20260905124629 | 76 | 111 | 0.0 | 3.0 | 0.00 | 0.00 | 0.00 | 82 | 1013.0 |
| 20260905124119 | 76 | 165 | 0.0 | 0.0 | 0.00 | 0.00 | 0.00 | 82 | 1013.0 |
| 20260905123627 | 76 | 165 | 0.0 | 0.0 | 0.00 | 0.00 | 0.00 | 84 | 1012.9 |
| 20260905123116 | 75 | 359 | 0.0 | 0.0 | 0.00 | 0.00 | 0.00 | 85 | 1012.8 |
| 20260905122625 | 75 | 37 | 0.0 | 0.0 | 0.00 | 0.00 | 0.00 | 87 | 1012.8 |
| 20260905122114 | 73 | 354 | 0.0 | 1.0 | 0.00 | 0.00 | 0.00 | 88 | 1013.0 |
| 20260905121644 | 73 | 330 | 0.0 | 1.0 | 0.00 | 0.00 | 0.00 | 89 | 1013.0 |
| 20260905121132 | 73 | 340 | 0.0 | 0.0 | 0.00 | 0.00 | 0.00 | 90 | 1013.1 |
| 20260905120620 | 73 | 330 | 0.0 | 1.0 | 0.00 | 0.00 | 0.00 | 91 | 1012.9 |
| 20260905120129 | 72 | 350 | 0.0 | 2.0 | 0.00 | 0.00 | 0.00 | 91 | 1013.0 |
| 20260905115619 | 72 | 22 | 0.0 | 2.0 | 0.00 | 0.00 | 0.00 | 91 | 1013.0 |
| 20260905115128 | 72 | 345 | 0.0 | 0.0 | 0.00 | 0.00 | 0.00 | 92 | 1012.9 |
| 20260905114616 | 72 | 345 | 0.0 | 0.0 | 0.00 | 0.00 | 0.00 | 92 | 1012.8 |
| 20260905114146 | 72 | 345 | 0.0 | 0.0 | 0.00 | 0.00 | 0.00 | 92 | 1012.8 |
| 20260905113614 | 71 | 345 | 0.0 | 0.0 | 0.00 | 0.00 | 0.00 | 92 | 1012.8 |
| 20260905113123 | 71 | 345 | 0.0 | 0.0 | 0.00 | 0.00 | 0.00 | 92 | 1012.8 |
| 20260905112628 | 71 | 345 | 0.0 | 0.0 | 0.00 | 0.00 | 0.00 | 92 | 1012.7 |
| 20260905112116 | 71 | 343 | 0.0 | 0.0 | 0.00 | 0.00 | 0.00 | 92 | 1012.7 |
| 20260905111626 | 71 | 343 | 0.0 | 0.0 | 0.00 | 0.00 | 0.00 | 92 | 1012.5 |
| 20260905111113 | 71 | 343 | 0.0 | 0.0 | 0.00 | 0.00 | 0.00 | 92 | 1012.4 |
| 20260905110623 | 71 | 343 | 0.0 | 0.0 | 0.00 | 0.00 | 0.00 | 92 | 1012.3 |
| 20260905110153 | 71 | 343 | 0.0 | 0.0 | 0.00 | 0.00 | 0.00 | 92 | 1012.3 |
| 20260905105620 | 71 | 343 | 0.0 | 0.0 | 0.00 | 0.00 | 0.00 | 92 | 1012.3 |
| 20260905105130 | 71 | 343 | 0.0 | 0.0 | 0.00 | 0.00 | 0.00 | 92 | 1012.3 |
| 20260905104619 | 71 | 343 | 0.0 | 0.0 | 0.00 | 0.00 | 0.00 | 92 | 1012.2 |
| 20260905104129 | 71 | 343 | 0.0 | 0.0 | 0.00 | 0.00 | 0.00 | 92 | 1012.3 |
| 20260905103619 | 71 | 343 | 0.0 | 0.0 | 0.00 | 0.00 | 0.00 | 92 | 1012.1 |
| 20260905103128 | 71 | 343 | 0.0 | 0.0 | 0.00 | 0.00 | 0.00 | 92 | 1011.9 |
| 20260905102618 | 71 | 343 | 0.0 | 0.0 | 0.00 | 0.00 | 0.00 | 92 | 1011.9 |
| 20260905102127 | 71 | 343 | 0.0 | 0.0 | 0.00 | 0.00 | 0.00 | 91 | 1011.9 |
| 20260905101616 | 71 | 343 | 0.0 | 0.0 | 0.00 | 0.00 | 0.00 | 91 | 1011.9 |
| 20260905101125 | 71 | 343 | 0.0 | 0.0 | 0.00 | 0.00 | 0.00 | 91 | 1011.9 |
| 20260905100615 | 71 | 343 | 0.0 | 0.0 | 0.00 | 0.00 | 0.00 | 91 | 1011.8 |
| 20260905100125 | 71 | 343 | 0.0 | 0.0 | 0.00 | 0.00 | 0.00 | 91 | 1011.8 |
| 20260905095615 | 71 | 343 | 0.0 | 0.0 | 0.00 | 0.08 | 0.00 | 90 | 1011.8 |
| 20260905095142 | 71 | 343 | 0.0 | 0.0 | 0.00 | 0.08 | 0.00 | 90 | 1011.7 |
| 20260905094627 | 71 | 343 | 0.0 | 0.0 | 0.00 | 0.08 | 0.00 | 91 | 1011.7 |
| 20260905094116 | 71 | 343 | 0.0 | 0.0 | 0.00 | 0.08 | 0.00 | 91 | 1011.7 |
| 20260905093626 | 71 | 343 | 0.0 | 0.0 | 0.00 | 0.08 | 0.00 | 91 | 1011.7 |
| 20260905093155 | 71 | 343 | 0.0 | 0.0 | 0.00 | 0.08 | 0.00 | 91 | 1011.7 |
| 20260905092637 | 71 | 343 | 0.0 | 0.0 | 0.00 | 0.08 | 0.00 | 90 | 1011.7 |
| 20260905092144 | 72 | 343 | 0.0 | 0.0 | 0.00 | 0.08 | 0.00 | 90 | 1011.7 |
| 20260905091633 | 72 | 343 | 0.0 | 0.0 | 0.00 | 0.08 | 0.00 | 90 | 1011.7 |
| 20260905091141 | 72 | 343 | 0.0 | 0.0 | 0.00 | 0.08 | 0.00 | 91 | 1011.6 |
| 20260905090650 | 72 | 343 | 0.0 | 0.0 | 0.00 | 0.08 | 0.00 | 90 | 1011.6 |
| 20260905090119 | 72 | 343 | 0.0 | 0.0 | 0.00 | 0.08 | 0.00 | 90 | 1011.6 |
| 20260905085628 | 72 | 343 | 0.0 | 0.0 | 0.00 | 0.08 | 0.00 | 90 | 1011.4 |
| 20260905085118 | 72 | 343 | 0.0 | 0.0 | 0.00 | 0.08 | 0.00 | 90 | 1011.5 |
| 20260905084642 | 72 | 343 | 0.0 | 0.0 | 0.00 | 0.08 | 0.00 | 91 | 1011.6 |
| 20260905084131 | 72 | 343 | 0.0 | 0.0 | 0.00 | 0.08 | 0.00 | 90 | 1011.5 |
| 20260905083620 | 72 | 343 | 0.0 | 0.0 | 0.00 | 0.08 | 0.00 | 90 | 1011.6 |
| 20260905083130 | 72 | 343 | 0.0 | 0.0 | 0.00 | 0.08 | 0.00 | 90 | 1011.6 |
| 20260905082637 | 72 | 343 | 0.0 | 0.0 | 0.00 | 0.08 | 0.00 | 90 | 1011.6 |
| 20260905082124 | 73 | 343 | 0.0 | 0.0 | 0.00 | 0.08 | 0.00 | 90 | 1011.8 |
| 20260905081613 | 72 | 343 | 0.0 | 0.0 | 0.00 | 0.08 | 0.00 | 90 | 1011.7 |
| 20260905081123 | 73 | 343 | 0.0 | 0.0 | 0.00 | 0.08 | 0.00 | 89 | 1011.8 |
| 20260905080631 | 73 | 343 | 0.0 | 0.0 | 0.00 | 0.08 | 0.00 | 90 | 1011.9 |
| 20260905080121 | 73 | 319 | 0.0 | 0.0 | 0.00 | 0.08 | 0.00 | 89 | 1012.0 |
| 20260905075630 | 73 | 320 | 0.0 | 0.0 | 0.00 | 0.08 | 0.00 | 89 | 1011.9 |
| 20260905075139 | 73 | 320 | 0.0 | 0.0 | 0.00 | 0.08 | 0.00 | 89 | 1011.7 |
| 20260905074626 | 73 | 320 | 0.0 | 0.0 | 0.00 | 0.08 | 0.00 | 89 | 1011.7 |
| 20260905074116 | 73 | 320 | 0.0 | 0.0 | 0.00 | 0.08 | 0.00 | 90 | 1011.8 |
| 20260905073626 | 73 | 320 | 0.0 | 0.0 | 0.00 | 0.08 | 0.00 | 90 | 1011.7 |
| 20260905073136 | 73 | 320 | 0.0 | 0.0 | 0.00 | 0.08 | 0.00 | 90 | 1011.8 |
| 20260905072622 | 73 | 320 | 0.0 | 0.0 | 0.00 | 0.08 | 0.00 | 90 | 1011.7 |
| 20260905072127 | 73 | 320 | 0.0 | 0.0 | 0.00 | 0.08 | 0.00 | 90 | 1011.8 |
| 20260905071636 | 73 | 320 | 0.0 | 0.0 | 0.00 | 0.08 | 0.00 | 89 | 1011.9 |
| 20260905071152 | 73 | 165 | 0.0 | 0.0 | 0.00 | 0.08 | 0.00 | 89 | 1012.0 |
| 20260905070619 | 73 | 165 | 0.0 | 1.0 | 0.00 | 0.08 | 0.00 | 89 | 1012.1 |
| 20260905070129 | 74 | 165 | 0.0 | 2.0 | 0.00 | 0.08 | 0.00 | 89 | 1012.1 |
| 20260905065637 | 73 | 16 | 0.0 | 2.0 | 0.00 | 0.08 | 0.00 | 89 | 1012.2 |
| 20260905065126 | 74 | 165 | 0.0 | 4.0 | 0.00 | 0.08 | 0.00 | 89 | 1012.3 |
| 20260905064616 | 74 | 294 | 0.0 | 4.0 | 0.00 | 0.08 | 0.00 | 89 | 1012.3 |
| 20260905064125 | 74 | 299 | 1.0 | 4.0 | 0.00 | 0.08 | 0.00 | 89 | 1012.4 |
| 20260905063613 | 74 | 282 | 2.0 | 4.0 | 0.00 | 0.08 | 0.00 | 89 | 1012.5 |
| 20260905063123 | 74 | 165 | 0.0 | 3.0 | 0.00 | 0.08 | 0.00 | 89 | 1012.6 |
| 20260905062632 | 74 | 313 | 1.0 | 3.0 | 0.00 | 0.08 | 0.00 | 89 | 1012.7 |
| 20260905062120 | 74 | 165 | 0.0 | 5.0 | 0.00 | 0.08 | 0.00 | 89 | 1012.8 |
| 20260905061650 | 74 | 165 | 1.0 | 5.0 | 0.00 | 0.08 | 0.00 | 89 | 1012.7 |
| 20260905061118 | 74 | 326 | 0.0 | 2.0 | 0.00 | 0.08 | 0.00 | 89 | 1012.7 |
| 20260905060622 | 74 | 303 | 0.0 | 2.0 | 0.00 | 0.08 | 0.00 | 89 | 1012.7 |
| 20260905060131 | 74 | 313 | 1.0 | 2.0 | 0.00 | 0.08 | 0.00 | 89 | 1012.6 |
| 20260905055621 | 74 | 315 | 0.0 | 5.0 | 0.00 | 0.08 | 0.00 | 89 | 1012.6 |
| 20260905055150 | 74 | 321 | 1.0 | 5.0 | 0.00 | 0.08 | 0.00 | 89 | 1012.6 |
| 20260905054618 | 74 | 308 | 1.0 | 3.0 | 0.00 | 0.08 | 0.00 | 89 | 1012.7 |
| 20260905054127 | 74 | 307 | 0.0 | 4.0 | 0.00 | 0.08 | 0.00 | 89 | 1012.8 |
| 20260905053617 | 74 | 272 | 2.0 | 4.0 | 0.00 | 0.08 | 0.00 | 90 | 1012.8 |
| 20260905053126 | 74 | 309 | 1.0 | 3.0 | 0.00 | 0.08 | 0.00 | 90 | 1012.9 |
| 20260905052614 | 74 | 320 | 1.0 | 4.0 | 0.00 | 0.08 | 0.00 | 90 | 1012.9 |
| 20260905052144 | 74 | 320 | 1.0 | 4.0 | 0.00 | 0.08 | 0.00 | 90 | 1012.9 |
| 20260905051632 | 74 | 307 | 1.0 | 3.0 | 0.00 | 0.08 | 0.00 | 90 | 1013.0 |
| 20260905051121 | 74 | 288 | 0.0 | 0.0 | 0.00 | 0.08 | 0.00 | 89 | 1012.8 |
| 20260905050629 | 75 | 309 | 0.0 | 2.0 | 0.00 | 0.08 | 0.00 | 89 | 1013.0 |
| 20260905050118 | 75 | 311 | 0.0 | 3.0 | 0.00 | 0.08 | 0.00 | 89 | 1013.1 |
| 20260905045627 | 75 | 303 | 1.0 | 3.0 | 0.00 | 0.13 | 0.00 | 89 | 1013.2 |
| 20260905045115 | 75 | 299 | 0.0 | 2.0 | 0.00 | 0.13 | 0.00 | 90 | 1013.2 |
| 20260905044645 | 75 | 313 | 0.0 | 2.0 | 0.00 | 0.13 | 0.00 | 90 | 1013.1 |
| 20260905044113 | 75 | 307 | 0.0 | 3.0 | 0.00 | 0.13 | 0.00 | 90 | 1013.1 |
| 20260905043619 | 75 | 281 | 0.0 | 3.0 | 0.00 | 0.13 | 0.00 | 90 | 1013.0 |
| 20260905043148 | 75 | 305 | 0.0 | 0.0 | 0.00 | 0.13 | 0.00 | 89 | 1013.2 |
| 20260905042614 | 75 | 307 | 0.0 | 0.0 | 0.00 | 0.13 | 0.00 | 89 | 1013.2 |
| 20260905042123 | 75 | 307 | 0.0 | 0.0 | 0.00 | 0.13 | 0.00 | 89 | 1013.1 |
| 20260905041633 | 75 | 307 | 0.0 | 0.0 | 0.00 | 0.13 | 0.00 | 89 | 1013.1 |
| 20260905041122 | 76 | 289 | 0.0 | 0.0 | 0.00 | 0.13 | 0.00 | 89 | 1013.1 |
| 20260905040633 | 76 | 289 | 0.0 | 0.0 | 0.00 | 0.13 | 0.00 | 89 | 1013.2 |
| 20260905040120 | 75 | 289 | 0.0 | 1.0 | 0.00 | 0.13 | 0.00 | 89 | 1013.2 |
| 20260905035628 | 75 | 290 | 0.0 | 1.0 | 0.00 | 0.21 | 0.13 | 89 | 1013.2 |
| 20260905035138 | 75 | 281 | 0.0 | 0.0 | 0.00 | 0.21 | 0.13 | 89 | 1013.2 |
| 20260905034626 | 75 | 305 | 0.0 | 1.0 | 0.00 | 0.21 | 0.13 | 89 | 1013.3 |
| 20260905034116 | 75 | 282 | 0.0 | 1.0 | 0.00 | 0.21 | 0.13 | 89 | 1013.4 |
| 20260905033645 | 76 | 291 | 0.0 | 3.0 | 0.00 | 0.21 | 0.13 | 89 | 1013.5 |
| 20260905033114 | 76 | 311 | 1.0 | 4.0 | 0.00 | 0.21 | 0.13 | 89 | 1013.5 |
| 20260905032623 | 76 | 288 | 1.0 | 4.0 | 0.00 | 0.21 | 0.13 | 88 | 1013.5 |
| 20260905032131 | 76 | 318 | 0.0 | 2.0 | 0.00 | 0.21 | 0.13 | 89 | 1013.4 |
| 20260905031620 | 76 | 303 | 0.0 | 0.0 | 0.00 | 0.21 | 0.13 | 88 | 1013.4 |
| 20260905031124 | 76 | 305 | 0.0 | 0.0 | 0.00 | 0.21 | 0.13 | 88 | 1013.4 |
| 20260905030614 | 76 | 305 | 0.0 | 2.0 | 0.00 | 0.21 | 0.13 | 88 | 1013.5 |
| 20260905030144 | 76 | 305 | 0.0 | 2.0 | 0.00 | 0.21 | 0.13 | 88 | 1013.3 |
| 20260905025632 | 76 | 305 | 0.0 | 0.0 | 0.00 | 0.21 | 0.13 | 88 | 1013.3 |
| 20260905025121 | 76 | 305 | 0.0 | 0.0 | 0.00 | 0.21 | 0.13 | 88 | 1013.4 |
| 20260905024629 | 76 | 305 | 0.0 | 0.0 | 0.00 | 0.21 | 0.13 | 88 | 1013.3 |
| 20260905024138 | 77 | 305 | 0.0 | 0.0 | 0.00 | 0.21 | 0.13 | 88 | 1013.2 |
| 20260905023625 | 77 | 305 | 0.0 | 0.0 | 0.00 | 0.21 | 0.13 | 88 | 1013.1 |
| 20260905023114 | 77 | 305 | 0.0 | 0.0 | 0.00 | 0.21 | 0.13 | 87 | 1013.1 |
| 20260905022644 | 77 | 305 | 0.0 | 0.0 | 0.00 | 0.21 | 0.13 | 87 | 1013.1 |
| 20260905022132 | 77 | 305 | 0.0 | 0.0 | 0.00 | 0.21 | 0.13 | 87 | 1013.1 |
| 20260905021641 | 77 | 305 | 0.0 | 0.0 | 0.00 | 0.21 | 0.13 | 87 | 1013.2 |
| 20260905021130 | 78 | 305 | 0.0 | 0.0 | 0.00 | 0.21 | 0.13 | 87 | 1013.1 |
| 20260905020619 | 77 | 305 | 0.0 | 0.0 | 0.00 | 0.21 | 0.13 | 87 | 1013.1 |
| 20260905020144 | 77 | 305 | 0.0 | 0.0 | 0.00 | 0.21 | 0.13 | 87 | 1013.1 |
| 20260905015652 | 77 | 289 | 0.0 | 0.0 | 0.00 | 0.21 | 0.13 | 86 | 1013.1 |
| 20260905015141 | 78 | 289 | 0.0 | 0.0 | 0.00 | 0.21 | 0.13 | 86 | 1013.1 |
| 20260905014628 | 78 | 289 | 0.0 | 0.0 | 0.00 | 0.21 | 0.13 | 85 | 1013.0 |
| 20260905014117 | 78 | 289 | 0.0 | 0.0 | 0.00 | 0.21 | 0.13 | 84 | 1012.9 |
| 20260905013645 | 79 | 289 | 0.0 | 0.0 | 0.00 | 0.21 | 0.13 | 85 | 1012.8 |
| 20260905013114 | 79 | 289 | 0.0 | 0.0 | 0.00 | 0.21 | 0.13 | 85 | 1012.9 |
| 20260905012623 | 78 | 289 | 0.0 | 0.0 | 0.00 | 0.21 | 0.13 | 85 | 1012.7 |
| 20260905012132 | 78 | 289 | 0.0 | 0.0 | 0.00 | 0.21 | 0.13 | 86 | 1012.6 |
| 20260905011621 | 78 | 289 | 0.0 | 0.0 | 0.00 | 0.21 | 0.13 | 85 | 1012.5 |
| 20260905011130 | 79 | 289 | 0.0 | 0.0 | 0.00 | 0.21 | 0.13 | 85 | 1012.5 |
| 20260905010619 | 79 | 289 | 0.0 | 0.0 | 0.00 | 0.21 | 0.13 | 84 | 1012.5 |
| 20260905010128 | 79 | 305 | 0.0 | 0.0 | 0.00 | 0.21 | 0.13 | 84 | 1012.5 |
| 20260905005617 | 79 | 318 | 0.0 | 0.0 | 0.00 | 0.21 | 0.13 | 84 | 1012.4 |
| 20260905005127 | 79 | 299 | 0.0 | 0.0 | 0.00 | 0.21 | 0.13 | 84 | 1012.5 |
| 20260905004616 | 79 | 321 | 0.0 | 0.0 | 0.00 | 0.21 | 0.13 | 84 | 1012.6 |
| 20260905004125 | 79 | 321 | 0.0 | 0.0 | 0.00 | 0.21 | 0.13 | 83 | 1012.5 |
| 20260905003614 | 79 | 321 | 0.0 | 0.0 | 0.00 | 0.21 | 0.13 | 83 | 1012.6 |
| 20260905003120 | 79 | 321 | 0.0 | 0.0 | 0.00 | 0.21 | 0.13 | 83 | 1012.5 |
| 20260905002649 | 79 | 321 | 0.0 | 0.0 | 0.00 | 0.21 | 0.13 | 83 | 1012.5 |
| 20260905002137 | 79 | 321 | 0.0 | 0.0 | 0.00 | 0.21 | 0.13 | 83 | 1012.5 |
| 20260905001625 | 79 | 321 | 0.0 | 0.0 | 0.00 | 0.21 | 0.13 | 83 | 1012.5 |
| 20260905001115 | 80 | 321 | 0.0 | 0.0 | 0.00 | 0.21 | 0.13 | 82 | 1012.5 |
| 20260905000642 | 79 | 321 | 0.0 | 0.0 | 0.00 | 0.21 | 0.13 | 83 | 1012.4 |
| 20260905000131 | 79 | 321 | 0.0 | 0.0 | 0.00 | 0.21 | 0.13 | 83 | 1012.5 |
| 20260904235641 | 79 | 321 | 0.0 | 0.0 | 0.00 | 0.21 | 0.13 | 84 | 1012.4 |
| 20260904235128 | 79 | 321 | 0.0 | 0.0 | 0.00 | 0.21 | 0.13 | 83 | 1012.4 |
| 20260904234618 | 79 | 321 | 0.0 | 0.0 | 0.00 | 0.21 | 0.13 | 83 | 1012.4 |
| 20260904234127 | 79 | 321 | 0.0 | 0.0 | 0.00 | 0.21 | 0.13 | 82 | 1012.4 |
| 20260904233616 | 80 | 321 | 0.0 | 0.0 | 0.00 | 0.21 | 0.13 | 83 | 1012.4 |
| 20260904233144 | 80 | 321 | 0.0 | 0.0 | 0.00 | 0.21 | 0.13 | 82 | 1012.6 |
| 20260904232628 | 80 | 321 | 0.0 | 0.0 | 0.00 | 0.21 | 0.13 | 82 | 1012.7 |
| 20260904232117 | 80 | 321 | 0.0 | 0.0 | 0.00 | 0.21 | 0.13 | 81 | 1012.6 |
| 20260904231626 | 81 | 321 | 0.0 | 0.0 | 0.00 | 0.21 | 0.13 | 81 | 1012.6 |
| 20260904231136 | 80 | 321 | 0.0 | 0.0 | 0.00 | 0.21 | 0.13 | 81 | 1012.6 |
| 20260904230644 | 80 | 321 | 0.0 | 0.0 | 0.00 | 0.21 | 0.13 | 80 | 1012.8 |
| 20260904230152 | 81 | 321 | 0.0 | 0.0 | 0.00 | 0.21 | 0.13 | 80 | 1012.7 |